Change the Weather History Date:

Sunday, August 11, 2013

  Actual Average Record
Temperature  
Mean Temperature 63 °F 64 °F  
Max Temperature 69 °F 74 °F 89 °F (2003)
Min Temperature 56 °F 53 °F 50 °F (2008)
Degree Days  
Heating Degree Days 2    
Month to date heating degree days 35  
Since 1 June heating degree days 232  
Since 1 July heating degree days 130  
Cooling Degree Days 0    
Month to date cooling degree days 0  
Year to date cooling degree days 40  
Since 1 June cooling degree days 34  
Growing Degree Days 12 (Base 50)    
Moisture  
Dew Point 55 °F    
Average Humidity 82    
Maximum Humidity 100    
Minimum Humidity 63    
Precipitation  
Precipitation 0.00 in - 0.05 in (1965)
Month to date precipitation 0.04  
Year to date precipitation 2.45  
Since 1 July precipitation 0.06  
Sea Level Pressure  
Sea Level Pressure 30.02 in    
Wind  
Wind Speed 4 mph (SE)    
Max Wind Speed 12 mph    
Max Gust Speed 21 mph    
Visibility 8 miles    
Events      
T = Trace of Precipitation, MM = Missing Value Source: NWS Daily Summary

Daily Weather History Graph

Daily Weather History Graph

Search for Another Location

Airport or City:

Trip Planner

Search our weather history database for the weather conditions in past years. The results will help you decide how hot, cold, wet, or windy it might be!

Date:

Astronomy

Aug. 11, 2013 Rise Set
Actual Time 6:21 AM PDT 8:02 PM PDT
Civil Twilight 5:53 AM PDT 8:30 PM PDT
Nautical Twilight 5:19 AM PDT 9:04 PM PDT
Astronomical Twilight 4:43 AM PDT 9:39 PM PDT
Moon 11:05 AM PDT (8/11) 10:31 PM PDT (8/11)
Length of Visible Light 14h 37m
Length of Day
13h 41m
Waxing Crescent, 23% of the Moon is Illuminated
Aug 11
Waxing Crescent
Aug 14
First Quarter
Aug 20
Full
Aug 28
Last Quarter
Sep 5
New

Hourly Weather History & Observations

Time (PDT) Temp. Dew Point Humidity Pressure Visibility Wind Dir Wind Speed Gust Speed Precip Events Conditions
12:53 AM 57.0 °F 55.0 °F 93% 30.05 in 9.0 mi Calm Calm - N/A   Overcast
1:53 AM 57.0 °F 54.0 °F 89% 30.04 in 10.0 mi Calm Calm - N/A   Overcast
2:53 AM 57.0 °F 55.0 °F 93% 30.04 in 9.0 mi Calm Calm - N/A   Overcast
3:53 AM 57.0 °F 55.0 °F 93% 30.03 in 5.0 mi Calm Calm - N/A   Overcast
4:53 AM 57.0 °F 55.0 °F 93% 30.03 in 7.0 mi Calm Calm - N/A   Overcast
5:48 AM 55.4 °F 55.4 °F 100% 30.04 in 2.5 mi Calm Calm - N/A   Overcast
5:53 AM 55.9 °F 55.0 °F 97% 30.04 in 3.0 mi Calm Calm - N/A   Overcast
6:42 AM 55.4 °F 55.4 °F 100% 30.04 in 2.0 mi Calm Calm - N/A   Overcast
6:53 AM 55.9 °F 55.0 °F 97% 30.04 in 2.0 mi Calm Calm - N/A   Overcast
6:59 AM 55.4 °F 55.4 °F 100% 30.05 in 1.2 mi Calm Calm - N/A   Overcast
7:08 AM 55.4 °F 53.6 °F 94% 30.05 in 2.0 mi Calm Calm - N/A   Overcast
7:25 AM 55.4 °F 55.4 °F 100% 30.05 in 1.8 mi Calm Calm - N/A   Overcast
7:29 AM 55.4 °F 55.4 °F 100% 30.05 in 3.0 mi ENE 3.5 mph - N/A   Overcast
7:53 AM 55.9 °F 54.0 °F 93% 30.05 in 5.0 mi Calm Calm - N/A   Overcast
8:53 AM 57.9 °F 55.0 °F 90% 30.05 in 4.0 mi Calm Calm - N/A   Overcast
9:53 AM 59.0 °F 55.0 °F 87% 30.05 in 10.0 mi Calm Calm - N/A   Overcast
10:01 AM 59.0 °F 55.4 °F 88% 30.04 in 10.0 mi Calm Calm - N/A   Overcast
10:51 AM 64.4 °F 55.4 °F 73% 30.04 in 10.0 mi Variable 3.5 mph - N/A   Overcast
10:53 AM 64.0 °F 55.0 °F 73% 30.04 in 10.0 mi Variable 4.6 mph - N/A   Overcast
11:53 AM 66.0 °F 55.9 °F 70% 30.03 in 10.0 mi Variable 5.8 mph - N/A   Scattered Clouds
12:53 PM 66.9 °F 55.0 °F 66% 30.02 in 10.0 mi South 9.2 mph - N/A   Clear
1:53 PM 68.0 °F 55.0 °F 63% 30.01 in 10.0 mi South 6.9 mph - N/A   Clear
2:53 PM 68.0 °F 55.0 °F 63% 30.01 in 10.0 mi SSE 10.4 mph - N/A   Clear
3:53 PM 66.0 °F 54.0 °F 65% 30.01 in 10.0 mi South 10.4 mph - N/A   Clear
4:53 PM 64.9 °F 54.0 °F 68% 29.99 in 10.0 mi SE 9.2 mph 16.1 mph N/A   Clear
5:18 PM 62.6 °F 53.6 °F 72% 29.99 in 10.0 mi SSE 11.5 mph - N/A   Scattered Clouds
5:25 PM 62.6 °F 53.6 °F 72% 29.99 in 10.0 mi SE 9.2 mph - N/A   Mostly Cloudy
5:53 PM 61.0 °F 54.0 °F 78% 29.99 in 10.0 mi SSE 9.2 mph - N/A   Overcast
6:53 PM 59.0 °F 54.0 °F 83% 29.99 in 10.0 mi East 8.1 mph - N/A   Overcast
7:06 PM 57.2 °F 53.6 °F 88% 29.99 in 10.0 mi ESE 9.2 mph - N/A   Overcast
7:53 PM 57.9 °F 54.0 °F 87% 29.99 in 10.0 mi ESE 8.1 mph - N/A   Overcast
8:53 PM 57.9 °F 54.0 °F 87% 29.99 in 10.0 mi ENE 6.9 mph - N/A   Overcast
9:53 PM 57.0 °F 54.0 °F 89% 30.01 in 10.0 mi ESE 5.8 mph - N/A   Overcast
10:53 PM 57.0 °F 54.0 °F 89% 30.01 in 10.0 mi NE 3.5 mph - N/A   Overcast
11:53 PM 55.9 °F 54.0 °F 93% 30.01 in 9.0 mi Calm Calm - N/A   Overcast